JS2WAD-13 Weather Reports


time (UTC)temp
F
wind
direction
speed
knots
gust
knots
rain 1hr
in
rain 24hr
in
rain mn
in
humidity
%
barometer
mb
20260509002611 63 38 11.3 19.1 0.00 0.00 0.00 50 906.6
20260509002111 63 35 8.7 16.5 0.00 0.00 0.00 50 906.7
20260509001611 63 35 10.4 14.8 0.00 0.00 0.00 52 906.6
20260509001111 62 27 11.3 23.5 0.00 0.00 0.00 54 906.8
20260509000611 63 32 9.6 18.2 0.00 0.00 0.00 49 906.6
20260509000111 63 4 8.7 17.4 0.00 0.00 0.00 48 906.5
20260508235611 62 25 8.7 13.9 0.00 0.00 0.00 52 906.5
20260508235111 62 31 7.0 13.9 0.00 0.00 0.00 50 906.5
20260508234611 62 20 7.0 11.3 0.00 0.00 0.00 54 906.5
20260508234111 62 37 7.8 12.2 0.00 0.00 0.00 53 906.6
20260508233611 62 33 8.7 19.1 0.00 0.00 0.00 52 906.6
20260508233111 62 13 9.6 13.0 0.00 0.00 0.00 53 906.5
20260508232611 62 4 9.6 19.1 0.00 0.00 0.00 50 906.2
20260508232111 62 4 8.7 17.4 0.00 0.00 0.00 51 906.2
20260508231611 61 35 8.7 18.2 0.00 0.00 0.00 55 906.3
20260508231111 61 37 8.7 18.2 0.00 0.00 0.00 52 906.2
20260508230611 61 31 9.6 19.1 0.00 0.00 0.00 53 906.3
20260508230111 61 31 9.6 20.0 0.00 0.00 0.00 52 906.1
20260508225611 61 20 9.6 18.2 0.00 0.00 0.00 52 905.9
20260508225111 61 36 9.6 16.5 0.00 0.00 0.00 55 906.1
20260508224611 61 29 9.6 21.7 0.00 0.00 0.00 53 905.9
20260508224111 61 26 8.7 15.6 0.00 0.00 0.00 54 905.9
20260508223611 60 35 7.8 16.5 0.00 0.00 0.00 55 905.9
20260508223111 60 31 8.7 15.6 0.00 0.00 0.00 58 905.8
20260508222611 60 43 8.7 15.6 0.00 0.00 0.00 55 905.7
20260508222111 60 43 7.8 16.5 0.00 0.00 0.00 56 905.7
20260508221611 60 35 7.8 13.0 0.00 0.00 0.00 58 905.8
20260508221111 60 23 9.6 18.2 0.00 0.00 0.00 57 905.7
20260508220611 60 35 10.4 19.1 0.00 0.00 0.00 60 905.6
20260508220111 60 34 9.6 17.4 0.00 0.00 0.00 56 905.5
20260508215611 59 18 7.8 14.8 0.00 0.00 0.00 59 905.5
20260508215111 59 25 7.8 16.5 0.00 0.00 0.00 60 905.5
20260508214611 59 39 7.0 13.9 0.00 0.00 0.00 65 905.4
20260508214111 59 31 6.1 18.2 0.00 0.00 0.00 61 905.3
20260508213611 58 21 4.3 13.0 0.00 0.00 0.00 63 905.3
20260508213111 58 359 4.3 12.2 0.00 0.00 0.00 63 905.1
20260508212611 58 37 5.2 11.3 0.00 0.00 0.00 65 905.3
20260508212112 58 43 5.2 13.0 0.00 0.00 0.00 63 905.0
20260508211612 58 23 5.2 9.6 0.00 0.00 0.00 65 904.9
20260508211111 58 15 6.1 9.6 0.00 0.00 0.00 64 904.9
20260508210612 57 43 6.1 10.4 0.00 0.00 0.00 64 905.0
20260508210112 58 38 5.2 11.3 0.00 0.00 0.00 65 904.9
20260508205612 58 25 5.2 11.3 0.00 0.00 0.00 65 904.9
20260508205112 58 37 4.3 11.3 0.00 0.00 0.00 66 904.9
20260508204612 58 29 4.3 7.8 0.00 0.00 0.00 65 904.8
20260508204112 58 45 5.2 7.8 0.00 0.00 0.00 64 904.9
20260508203612 58 29 5.2 9.6 0.00 0.00 0.00 63 904.5
20260508203112 58 354 6.1 12.2 0.00 0.00 0.00 63 904.6
20260508202612 58 43 5.2 11.3 0.00 0.00 0.00 64 904.7
20260508202112 58 32 4.3 12.2 0.00 0.00 0.00 65 904.7
20260508201612 58 25 3.5 9.6 0.00 0.00 0.00 65 904.7
20260508201112 58 16 3.5 9.6 0.00 0.00 0.00 65 904.8
20260508200612 58 38 2.6 9.6 0.00 0.00 0.00 63 904.8
20260508200112 58 37 2.6 5.2 0.00 0.01 0.00 66 904.6
20260508195612 58 40 3.5 7.8 0.00 0.01 0.00 68 904.6
20260508195112 58 27 4.3 7.0 0.00 0.01 0.00 62 904.0
20260508194612 58 12 4.3 9.6 0.00 0.01 0.00 62 904.4
20260508194112 58 25 5.2 9.6 0.00 0.01 0.00 61 904.2
20260508193612 58 43 4.3 10.4 0.00 0.01 0.00 62 904.1
20260508193112 59 41 2.6 6.1 0.00 0.01 0.00 61 904.1
20260508192612 58 26 3.5 8.7 0.00 0.01 0.00 63 904.0
20260508192112 59 23 4.3 11.3 0.00 0.01 0.00 61 904.1
20260508191612 59 39 5.2 10.4 0.00 0.01 0.00 62 904.0
20260508191112 59 4 6.1 10.4 0.00 0.01 0.00 61 904.1
20260508190612 59 39 6.1 13.0 0.00 0.01 0.00 63 903.9
20260508190112 59 27 7.0 10.4 0.00 0.01 0.00 61 903.9
20260508185612 59 35 7.8 14.8 0.00 0.01 0.00 61 904.1
20260508185112 59 26 7.0 15.6 0.00 0.01 0.00 61 904.1
20260508184612 59 22 6.1 13.0 0.00 0.01 0.00 62 903.8
20260508184112 59 341 5.2 13.0 0.00 0.01 0.00 64 903.7
20260508183612 59 19 6.1 7.8 0.00 0.01 0.00 64 903.6
20260508183112 59 36 7.0 13.9 0.00 0.01 0.00 62 903.7
20260508182612 59 13 7.0 14.8 0.00 0.01 0.00 63 903.6
20260508182112 59 343 5.2 13.0 0.00 0.01 0.00 63 903.6
20260508181612 59 29 4.3 9.6 0.00 0.01 0.00 65 903.6
20260508181112 59 35 3.5 9.6 0.00 0.01 0.00 64 903.8
20260508180612 59 34 2.6 7.8 0.00 0.01 0.00 66 903.8
20260508180112 59 39 5.2 10.4 0.00 0.01 0.00 64 903.7
20260508175612 59 27 7.0 16.5 0.00 0.01 0.00 65 903.6
20260508175112 59 31 7.0 14.8 0.00 0.01 0.00 62 903.8
20260508174612 60 35 7.0 11.3 0.00 0.01 0.00 65 903.6
20260508174112 60 41 6.1 14.8 0.00 0.01 0.00 60 903.6
20260508173612 61 24 4.3 8.7 0.00 0.01 0.00 60 903.6
20260508173112 61 24 5.2 10.4 0.00 0.01 0.00 59 903.4
20260508172612 61 39 5.2 11.3 0.00 0.01 0.00 59 903.4
20260508172112 61 14 4.3 13.0 0.00 0.01 0.00 57 903.3
20260508171612 61 19 2.6 10.4 0.00 0.01 0.00 58 903.3
20260508171112 61 31 2.6 7.0 0.00 0.01 0.00 61 903.3
20260508170612 61 37 3.5 9.6 0.00 0.01 0.00 55 903.1
20260508170112 61 34 2.6 7.8 0.00 0.01 0.00 55 903.2
20260508165612 61 347 0.9 6.1 0.00 0.01 0.00 52 903.6
20260508165112 61 43 0.0 2.6 0.00 0.01 0.01 49 903.4
20260508164612 61 43 0.0 0.9 0.00 0.01 0.01 49 903.6
20260508164112 61 44 0.0 0.9 0.00 0.01 0.01 50 903.3
20260508163612 61 43 0.0 0.9 0.00 0.01 0.01 49 903.4
20260508163112 61 43 0.0 1.7 0.00 0.01 0.01 49 903.3
20260508162612 61 43 0.0 1.7 0.00 0.01 0.01 48 903.4
20260508162112 61 42 0.9 1.7 0.00 0.01 0.01 48 903.4
20260508161612 61 43 0.9 1.7 0.00 0.01 0.01 48 903.3
20260508161112 61 41 0.9 3.5 0.00 0.01 0.01 47 903.5
20260508160612 61 43 0.9 2.6 0.00 0.01 0.01 49 903.2
20260508160112 61 43 1.7 3.5 0.00 0.01 0.01 49 903.3
20260508155612 61 37 0.9 5.2 0.00 0.01 0.01 48 903.4
20260508155112 61 42 0.9 2.6 0.00 0.01 0.01 50 903.5
20260508154612 61 40 0.9 4.3 0.00 0.01 0.01 53 903.5
20260508154112 62 38 0.9 4.3 0.00 0.01 0.01 45 903.5
20260508153612 62 37 0.9 1.7 0.00 0.01 0.01 52 903.5
20260508153112 62 35 0.9 2.6 0.00 0.01 0.01 53 903.5
20260508152612 62 35 0.9 3.5 0.00 0.01 0.01 48 903.4
20260508152112 62 40 0.9 2.6 0.00 0.01 0.01 44 903.5
20260508151612 62 39 1.7 3.5 0.00 0.01 0.01 49 903.4
20260508151112 62 39 1.7 4.3 0.00 0.01 0.01 52 903.3
20260508150612 62 39 1.7 3.5 0.00 0.01 0.01 48 903.4
20260508150112 62 41 1.7 2.6 0.00 0.01 0.01 43 903.6
20260508145612 62 31 1.7 2.6 0.00 0.01 0.01 42 903.5
20260508145112 62 35 1.7 4.3 0.00 0.01 0.01 43 903.5
20260508144612 63 34 1.7 4.3 0.00 0.01 0.01 46 903.3
20260508144112 63 38 1.7 5.2 0.00 0.01 0.01 43 903.4
20260508143612 63 13 1.7 4.3 0.00 0.01 0.01 44 903.4
20260508143112 63 40 0.9 4.3 0.00 0.01 0.01 41 903.4
20260508142612 63 31 0.9 2.6 0.00 0.01 0.01 42 903.3
20260508142112 63 28 1.7 2.6 0.00 0.01 0.01 42 903.3
20260508141612 63 27 1.7 5.2 0.00 0.01 0.01 41 903.4
20260508141112 63 33 1.7 4.3 0.00 0.01 0.01 41 903.2
20260508140612 63 41 1.7 3.5 0.00 0.01 0.01 42 903.2
20260508140112 63 31 2.6 6.1 0.00 0.01 0.01 41 903.5
20260508135612 63 47 2.6 5.2 0.00 0.01 0.01 41 903.4
20260508135112 63 24 2.6 7.0 0.00 0.01 0.01 44 903.3
20260508134613 64 42 2.6 7.8 0.00 0.01 0.01 45 903.1
20260508134113 64 29 2.6 7.8 0.00 0.01 0.01 45 903.2
20260508133612 64 33 3.5 5.2 0.00 0.01 0.01 43 903.0
20260508133113 64 36 4.3 8.7 0.00 0.01 0.01 43 902.8
20260508132613 64 33 5.2 8.7 0.00 0.01 0.01 43 902.8
20260508132113 64 38 3.5 9.6 0.00 0.01 0.01 43 902.7
20260508131613 64 35 4.3 8.7 0.00 0.01 0.01 45 902.8
20260508131113 64 43 6.1 12.2 0.00 0.01 0.01 41 902.6
20260508130613 64 35 6.1 13.0 0.00 0.01 0.01 42 902.6
20260508130113 65 36 5.2 8.7 0.00 0.01 0.01 45 902.4
20260508125613 65 37 4.3 13.0 0.00 0.01 0.01 48 902.3
20260508125113 65 23 4.3 9.6 0.00 0.01 0.01 50 902.1
20260508124613 65 25 4.3 12.2 0.00 0.01 0.01 53 902.0
20260508124113 65 21 4.3 10.4 0.00 0.01 0.01 53 902.4
20260508123613 65 38 6.1 9.6 0.00 0.01 0.01 52 902.2
20260508123113 65 35 6.1 13.9 0.00 0.01 0.01 54 901.8
20260508122613 65 21 6.1 11.3 0.00 0.01 0.01 54 902.0
20260508122113 65 34 7.0 12.2 0.00 0.01 0.01 59 902.0
20260508121613 65 45 6.1 12.2 0.00 0.01 0.01 53 901.9
20260508121113 65 31 6.1 9.6 0.00 0.01 0.01 54 901.9
20260508120613 65 45 6.1 13.0 0.00 0.01 0.01 56 901.9
20260508120113 65 37 7.0 12.2 0.00 0.01 0.01 54 901.9
20260508115613 66 29 6.1 14.8 0.00 0.01 0.01 55 901.9
20260508115113 66 43 6.1 13.0 0.00 0.01 0.01 55 901.7
20260508114613 65 12 7.0 10.4 0.00 0.01 0.01 56 901.7
20260508114113 65 35 8.7 17.4 0.00 0.01 0.01 55 901.6
20260508113613 66 8 9.6 17.4 0.00 0.01 0.01 55 901.6
20260508113113 66 4 8.7 15.6 0.00 0.01 0.01 54 901.4
20260508112613 66 18 7.8 16.5 0.00 0.01 0.01 55 901.4
20260508112113 66 339 8.7 15.6 0.00 0.01 0.01 57 901.3
20260508111613 66 10 8.7 17.4 0.00 0.01 0.01 57 901.0
20260508111113 66 25 7.0 19.1 0.00 0.01 0.01 58 901.0
20260508110613 66 33 5.2 10.4 0.00 0.01 0.01 61 901.0
20260508110113 66 37 5.2 10.4 0.00 0.01 0.01 61 900.8
20260508105613 66 35 5.2 10.4 0.00 0.01 0.01 61 900.9
20260508105113 66 35 6.1 8.7 0.00 0.01 0.01 61 900.7
20260508104613 66 40 6.1 13.9 0.00 0.01 0.01 60 900.8
20260508104113 67 20 5.2 10.4 0.00 0.01 0.01 61 900.5
20260508103613 67 33 4.3 9.6 0.00 0.01 0.01 61 900.2
20260508103113 67 41 5.2 10.4 0.00 0.01 0.01 63 900.3
20260508102613 67 37 5.2 11.3 0.00 0.01 0.01 62 900.1
20260508102113 67 43 4.3 9.6 0.00 0.01 0.01 62 899.9
20260508101613 67 45 5.2 8.7 0.00 0.01 0.01 64 899.6
20260508101113 67 26 7.0 15.6 0.00 0.01 0.01 61 899.8
20260508100613 67 34 9.6 13.9 0.00 0.01 0.01 62 899.7
20260508100113 67 13 10.4 16.5 0.00 0.01 0.01 61 899.4
20260508095613 67 34 8.7 17.4 0.00 0.01 0.01 61 899.7
20260508095113 67 34 8.7 18.2 0.00 0.01 0.01 61 899.5
20260508094613 67 37 8.7 14.8 0.00 0.01 0.01 61 899.0
20260508094113 68 27 8.7 18.2 0.00 0.01 0.01 62 898.7
20260508093613 68 14 8.7 15.6 0.00 0.01 0.01 62 898.8
20260508093113 68 35 8.7 13.9 0.00 0.01 0.01 60 898.5
20260508092613 68 31 7.8 14.8 0.00 0.01 0.01 61 898.9
20260508092113 69 39 7.8 13.0 0.00 0.01 0.01 60 898.5
20260508091613 69 31 7.8 13.9 0.00 0.01 0.01 59 898.4
20260508091113 69 26 7.8 17.4 0.00 0.01 0.01 59 898.5
20260508090613 70 39 8.7 17.4 0.00 0.01 0.01 59 898.5
20260508090113 70 39 8.7 14.8 0.00 0.01 0.01 60 898.4
20260508085613 71 14 7.8 15.6 0.00 0.01 0.01 58 898.3
20260508085113 71 31 7.0 11.3 0.00 0.01 0.01 60 898.1
20260508084613 71 31 7.0 13.9 0.00 0.01 0.01 59 898.1
20260508084113 71 37 7.0 13.9 0.00 0.01 0.01 62 898.0
20260508083613 71 50 7.8 13.0 0.00 0.01 0.01 61 897.8
20260508083113 71 31 8.7 17.4 0.00 0.01 0.01 62 897.8
20260508082613 72 10 7.8 15.6 0.00 0.01 0.01 60 897.6
20260508082113 72 32 7.8 17.4 0.00 0.01 0.01 59 897.4
20260508081613 73 10 9.6 18.2 0.00 0.01 0.01 58 897.4
20260508081113 74 359 8.7 16.5 0.00 0.01 0.01 56 897.3
20260508080613 76 31 5.2 15.6 0.00 0.01 0.01 53 897.2
20260508080113 76 221 4.3 5.2 0.00 0.01 0.01 37 896.5
20260508075613 76 4 4.3 15.6 0.00 0.01 0.01 41 896.3
20260508075113 76 208 3.5 15.6 0.00 0.01 0.01 45 896.4
20260508074613 76 160 3.5 6.1 0.00 0.01 0.01 51 896.4
20260508074113 76 189 2.6 10.4 0.00 0.01 0.01 53 896.4
20260508073613 76 183 0.9 7.8 0.00 0.01 0.01 57 896.4
20260508073113 76 167 0.9 3.5 0.00 0.01 0.01 60 896.5
20260508072613 76 200 1.7 4.3 0.00 0.01 0.01 60 896.3
20260508072113 76 165 1.7 4.3 0.00 0.01 0.01 59 896.1
20260508071613 76 156 2.6 8.7 0.00 0.01 0.01 56 896.1
20260508071113 76 145 3.5 6.1 0.00 0.01 0.01 57 896.1
20260508070613 76 147 3.5 12.2 0.00 0.01 0.01 57 896.2
20260508070113 76 152 2.6 6.1 0.00 0.01 0.01 59 896.5
20260508065613 76 188 1.7 6.1 0.00 0.01 0.01 61 896.5
20260508065113 75 154 1.7 5.2 0.00 0.01 0.01 62 896.6
20260508064613 75 338 1.7 5.2 0.00 0.01 0.01 65 896.8
20260508064113 75 149 2.6 4.3 0.00 0.01 0.01 65 896.7
20260508063613 75 169 3.5 8.7 0.00 0.01 0.01 65 896.7
20260508063113 75 190 3.5 7.8 0.00 0.01 0.01 66 896.7
20260508062614 75 149 2.6 9.6 0.00 0.01 0.01 66 896.9
20260508062114 75 145 2.6 7.0 0.00 0.01 0.01 66 896.9
20260508061614 75 147 4.3 7.8 0.00 0.01 0.01 66 896.9
20260508061114 75 140 4.3 11.3 0.00 0.01 0.01 66 897.1
20260508060614 75 154 4.3 8.7 0.00 0.01 0.01 66 896.9
20260508060114 75 154 3.5 9.6 0.00 0.01 0.01 66 896.3
20260508055614 75 359 3.5 8.7 0.00 0.01 0.01 66 897.1
20260508055114 75 154 2.6 7.8 0.00 0.01 0.01 67 896.8
20260508054614 75 148 1.7 6.1 0.00 0.01 0.01 68 896.9
20260508054114 75 326 2.6 4.3 0.00 0.01 0.01 69 896.8
20260508053614 75 149 2.6 7.8 0.00 0.01 0.01 69 896.8
20260508053114 75 151 1.7 4.3 0.00 0.01 0.01 70 896.7
20260508052614 74 145 1.7 4.3 0.00 0.01 0.01 70 896.8
20260508052114 74 165 3.5 6.1 0.00 0.01 0.01 70 896.8
20260508051614 74 149 3.5 8.7 0.00 0.01 0.01 70 896.9
20260508051114 74 153 2.6 5.2 0.00 0.01 0.01 70 897.1
20260508050614 74 149 2.6 7.0 0.00 0.01 0.01 70 897.1
20260508050114 74 170 2.6 7.0 0.00 0.01 0.01 70 896.8
20260508045614 74 162 3.5 7.8 0.00 0.01 0.01 70 897.2
20260508045114 74 145 3.5 7.8 0.00 0.01 0.01 70 897.3
20260508044614 75 141 3.5 8.7 0.00 0.01 0.01 70 897.2
20260508044114 75 147 2.6 7.8 0.00 0.01 0.01 70 897.1
20260508043614 75 183 1.7 5.2 0.00 0.01 0.01 70 897.0
20260508043114 75 145 1.7 4.3 0.00 0.01 0.01 70 897.2
20260508042614 75 150 1.7 5.2 0.00 0.01 0.01 70 897.2
20260508042114 75 155 1.7 6.1 0.00 0.01 0.01 70 897.2
20260508041614 75 145 1.7 5.2 0.00 0.01 0.01 70 897.4
20260508041114 75 146 1.7 5.2 0.00 0.01 0.01 70 897.5
20260508040614 75 158 1.7 6.1 0.00 0.01 0.01 71 897.5
20260508040114 75 140 1.7 5.2 0.00 0.01 0.01 71 897.1
20260508035614 75 158 2.6 5.2 0.00 0.01 0.01 71 897.7
20260508035114 75 145 2.6 7.0 0.00 0.01 0.01 71 897.5
20260508034614 75 204 3.5 6.1 0.00 0.01 0.01 72 897.8
20260508034114 75 152 3.5 7.0 0.00 0.01 0.01 73 897.7
20260508033614 75 151 2.6 7.0 0.00 0.01 0.01 75 897.8
20260508033114 75 148 3.5 5.2 0.00 0.01 0.01 74 898.0
20260508032614 75 146 2.6 7.0 0.00 0.01 0.01 74 898.0
20260508032114 75 154 1.7 6.1 0.00 0.01 0.01 74 898.0
20260508031614 75 143 1.7 4.3 0.00 0.01 0.01 74 898.4
20260508031114 75 145 1.7 3.5 0.00 0.01 0.01 75 898.3
20260508030614 75 154 2.6 6.1 0.00 0.01 0.01 74 898.3
20260508030114 75 186 2.6 7.0 0.00 0.01 0.01 73 898.5
20260508025614 75 183 2.6 7.8 0.00 0.01 0.01 73 898.7
20260508025114 76 21 1.7 5.2 0.00 0.01 0.01 73 898.7
20260508024614 76 354 0.9 4.3 0.00 0.01 0.01 72 898.4
20260508024114 75 202 0.0 2.6 0.00 0.01 0.01 72 898.3
20260508023614 75 152 0.9 1.7 0.00 0.01 0.01 72 898.2
20260508023114 75 168 1.7 5.2 0.00 0.01 0.01 71 898.4
20260508022614 75 156 0.9 4.3 0.00 0.01 0.01 71 898.7
20260508022114 75 30 0.9 2.6 0.00 0.01 0.01 71 898.6
20260508021614 75 156 0.9 1.7 0.00 0.01 0.01 71 898.4
20260508021114 74 156 0.9 4.3 0.00 0.01 0.01 71 898.3
20260508020614 74 185 0.9 2.6 0.00 0.01 0.01 71 898.8
20260508020114 74 165 0.0 2.6 0.00 0.01 0.01 71 898.5
20260508015614 74 166 0.9 3.5 0.00 0.01 0.01 70 898.7
20260508015114 75 164 0.9 2.6 0.00 0.01 0.01 70 899.0
20260508014614 75 165 0.9 3.5 0.00 0.01 0.01 70 899.2
20260508014114 75 171 0.9 2.6 0.00 0.01 0.01 70 899.2
20260508013614 75 173 0.9 3.5 0.00 0.01 0.01 70 899.2
20260508013114 75 174 0.9 3.5 0.00 0.01 0.01 70 899.0
20260508012614 75 203 0.0 2.6 0.00 0.01 0.01 70 899.3
20260508012114 75 65 0.0 0.9 0.00 0.01 0.01 71 899.1
20260508011614 75 66 0.9 2.6 0.00 0.01 0.01 71 899.3
20260508011114 74 66 0.0 1.7 0.00 0.01 0.01 72 899.0
20260508010614 74 59 0.0 0.9 0.00 0.01 0.01 73 899.3
20260508010114 73 58 0.0 0.9 0.00 0.01 0.01 75 899.5
20260508005614 73 58 0.9 2.6 0.00 0.01 0.01 75 899.6
20260508005114 73 56 0.9 1.7 0.00 0.01 0.01 76 899.7
20260508004614 73 66 0.9 2.6 0.00 0.01 0.01 78 899.4
20260508004114 72 59 0.0 2.6 0.00 0.01 0.01 78 899.5
20260508003614 72 49 0.0 1.7 0.00 0.01 0.01 78 899.7
20260508003114 72 49 0.0 1.7 0.00 0.01 0.01 79 899.4